Location: ?????????
(38.5999°N, 22.7695°E)
Time: 14:11:24
(UTC+00:00)

SL-4 R/B - Pass Details

Date: 23 May 2024
Orbit: 412 x 601 km, 51.6° (Epoch: 12 June)

Event Time Altitude Azimuth Distance (km) Brightness Sun altitude
Exits shadow 01:11:55 45° 197° (SSW) 789 2.4 -19.1°
Maximum altitude 01:13:01 64° 137° (SE) 646 2.2 -19.0°
Drops below altitude 10° 01:17:25 10° 57° (ENE) 1,932 6.0 -18.4°
Sets 01:19:45 0° 54° (NE) 2,848 7.2 -18.1°
